When you browse on this site, cookies collect data to enhance your experience and personalize the content and advertising you see.
Visit our Privacy Policy to learn more. By continuing to use the site, you agree to this use of cookies and data.
  • In Schweiz
  • Länderverzeichnis
  • Für 7 Tage
  • Wassertemperatur
  • Satellitenkarten
  • Wetterkarte
  • Widgets
  • user-avatar
    Anmelden

    Stündliche Wetter Plebanivka

    Heute, 26 April, Freitag

    Zeit Temperatur Niederschläge Wind Luftdruck Luftfeuchtigkeit
    00:00 +10°C° 0 mm 4 m/S 739 mmHg 69%
    01:00 +10°C° 0 mm 4 m/S 738 mmHg 70%
    02:00 +9°C° 0 mm 3 m/S 738 mmHg 71%
    03:00 +9°C° 0 mm 3 m/S 738 mmHg 71%
    04:00 +8°C° 0 mm 3 m/S 738 mmHg 71%
    05:00 +8°C° 0 mm 3 m/S 738 mmHg 71%
    06:00 +8°C° 0 mm 4 m/S 738 mmHg 68%
    07:00 +11°C° 0 mm 4 m/S 738 mmHg 65%
    08:00 +12°C° 0 mm 5 m/S 738 mmHg 63%
    09:00 +14°C° 0.2 mm 5 m/S 738 mmHg 61%
    10:00 +15°C° 0.2 mm 5 m/S 737 mmHg 59%
    11:00 +17°C° 0.2 mm 5 m/S 737 mmHg 57%
    12:00 +19°C° 0 mm 5 m/S 737 mmHg 55%
    13:00 +20°C° 0 mm 5 m/S 737 mmHg 53%
    14:00 +21°C° 0 mm 6 m/S 737 mmHg 51%
    15:00 +21°C° 0 mm 6 m/S 736 mmHg 52%
    16:00 +21°C° 0 mm 6 m/S 736 mmHg 53%
    17:00 +21°C° 0 mm 5 m/S 736 mmHg 53%
    18:00 +19°C° 0 mm 5 m/S 735 mmHg 58%
    19:00 +17°C° 0 mm 4 m/S 735 mmHg 63%
    20:00 +15°C° 0 mm 4 m/S 735 mmHg 68%
    21:00 +14°C° 0 mm 4 m/S 735 mmHg 68%
    22:00 +13°C° 0 mm 4 m/S 735 mmHg 68%
    23:00 +13°C° 0 mm 4 m/S 735 mmHg 69%

    Morgen, 27 April, Samstag

    Zeit Temperatur Niederschläge Wind Luftdruck Luftfeuchtigkeit
    00:00 +12°C° 0 mm 4 m/S 735 mmHg 67%
    01:00 +12°C° 0 mm 5 m/S 734 mmHg 65%
    02:00 +12°C° 0 mm 5 m/S 734 mmHg 63%
    03:00 +10°C° 0 mm 5 m/S 734 mmHg 63%
    04:00 +11°C° 0 mm 4 m/S 733 mmHg 63%
    05:00 +10°C° 0 mm 4 m/S 733 mmHg 63%
    06:00 +11°C° 0 mm 4 m/S 733 mmHg 63%
    07:00 +12°C° 0 mm 5 m/S 733 mmHg 64%
    08:00 +13°C° 0 mm 5 m/S 733 mmHg 64%
    09:00 +15°C° 0 mm 5 m/S 733 mmHg 62%
    10:00 +17°C° 0 mm 5 m/S 733 mmHg 59%
    11:00 +20°C° 0 mm 5 m/S 733 mmHg 57%
    12:00 +21°C° 0 mm 4 m/S 732 mmHg 55%
    13:00 +22°C° 0 mm 4 m/S 732 mmHg 54%
    14:00 +23°C° 0 mm 4 m/S 732 mmHg 52%
    15:00 +23°C° 0 mm 4 m/S 731 mmHg 53%
    16:00 +22°C° 0 mm 4 m/S 731 mmHg 54%
    17:00 +22°C° 0 mm 5 m/S 731 mmHg 55%
    18:00 +21°C° 0 mm 4 m/S 730 mmHg 59%
    19:00 +19°C° 0 mm 4 m/S 730 mmHg 63%
    20:00 +17°C° 0 mm 3 m/S 730 mmHg 67%
    21:00 +17°C° 0 mm 4 m/S 730 mmHg 66%
    22:00 +15°C° 0 mm 4 m/S 730 mmHg 65%
    23:00 +14°C° 0 mm 4 m/S 730 mmHg 64%

    übermorgen, 28 April, Sonntag

    Zeit Temperatur Niederschläge Wind Luftdruck Luftfeuchtigkeit
    00:00 +13°C° 0 mm 3 m/S 730 mmHg 63%
    01:00 +13°C° 0 mm 3 m/S 730 mmHg 62%
    02:00 +13°C° 0 mm 2 m/S 730 mmHg 60%
    03:00 +12°C° 0 mm 2 m/S 730 mmHg 62%
    04:00 +12°C° 0 mm 2 m/S 730 mmHg 63%
    05:00 +10°C° 0 mm 2 m/S 729 mmHg 65%
    06:00 +12°C° 0 mm 2 m/S 730 mmHg 63%
    07:00 +13°C° 0 mm 2 m/S 730 mmHg 62%
    08:00 +14°C° 0 mm 2 m/S 730 mmHg 60%
    09:00 +16°C° 0 mm 2 m/S 730 mmHg 58%
    10:00 +18°C° 0 mm 3 m/S 730 mmHg 56%
    11:00 +19°C° 0 mm 3 m/S 730 mmHg 54%
    12:00 +20°C° 0 mm 3 m/S 730 mmHg 52%
    13:00 +21°C° 0 mm 4 m/S 730 mmHg 50%
    14:00 +22°C° 0 mm 4 m/S 730 mmHg 48%
    15:00 +22°C° 0 mm 4 m/S 729 mmHg 49%
    16:00 +22°C° 0 mm 3 m/S 729 mmHg 50%
    17:00 +22°C° 0 mm 3 m/S 729 mmHg 52%
    18:00 +20°C° 0 mm 3 m/S 729 mmHg 57%
    19:00 +18°C° 0 mm 2 m/S 729 mmHg 63%
    20:00 +17°C° 0 mm 2 m/S 729 mmHg 68%
    21:00 +16°C° 0 mm 2 m/S 729 mmHg 69%
    22:00 +14°C° 0 mm 3 m/S 729 mmHg 70%
    23:00 +13°C° 0 mm 3 m/S 729 mmHg 71%

    29 April, Montag

    Zeit Temperatur Niederschläge Wind Luftdruck Luftfeuchtigkeit
    00:00 +13°C° 0 mm 3 m/S 729 mmHg 73%
    01:00 +12°C° 0 mm 3 m/S 729 mmHg 75%
    02:00 +12°C° 0 mm 2 m/S 729 mmHg 77%
    03:00 +12°C° 0 mm 2 m/S 729 mmHg 79%
    04:00 +12°C° 0 mm 2 m/S 729 mmHg 82%
    05:00 +10°C° 0 mm 2 m/S 729 mmHg 85%
    06:00 +13°C° 0.1 mm 2 m/S 729 mmHg 83%
    07:00 +13°C° 0.1 mm 3 m/S 729 mmHg 80%
    08:00 +14°C° 0.1 mm 3 m/S 730 mmHg 78%
    09:00 +16°C° 0.2 mm 3 m/S 730 mmHg 74%
    10:00 +18°C° 0.2 mm 3 m/S 730 mmHg 70%
    11:00 +19°C° 0.2 mm 3 m/S 730 mmHg 66%
    12:00 +20°C° 1.1 mm 4 m/S 730 mmHg 63%
    13:00 +20°C° 1.1 mm 4 m/S 729 mmHg 59%
    14:00 +21°C° 1.1 mm 4 m/S 729 mmHg 56%
    15:00 +21°C° 0.5 mm 3 m/S 729 mmHg 54%
    16:00 +21°C° 0.5 mm 3 m/S 729 mmHg 53%
    17:00 +21°C° 0.5 mm 3 m/S 729 mmHg 52%
    18:00 +19°C° 0.1 mm 3 m/S 729 mmHg 57%
    19:00 +17°C° 0.1 mm 3 m/S 729 mmHg 63%
    20:00 +16°C° 0.1 mm 3 m/S 729 mmHg 68%
    21:00 +15°C° 0.1 mm 2 m/S 729 mmHg 72%
    22:00 +14°C° 0.1 mm 2 m/S 729 mmHg 76%
    23:00 +14°C° 0.1 mm 2 m/S 729 mmHg 80%

    30 April, Dienstag

    Zeit Temperatur Niederschläge Wind Luftdruck Luftfeuchtigkeit
    00:00 +13°C° 0 mm 2 m/S 728 mmHg 81%
    01:00 +13°C° 0 mm 2 m/S 728 mmHg 83%
    02:00 +13°C° 0 mm 2 m/S 728 mmHg 85%
    03:00 +12°C° 0 mm 2 m/S 728 mmHg 88%
    04:00 +11°C° 0 mm 3 m/S 728 mmHg 90%
    05:00 +10°C° 0 mm 3 m/S 728 mmHg 93%
    06:00 +11°C° 0 mm 3 m/S 728 mmHg 87%
    07:00 +13°C° 0 mm 3 m/S 728 mmHg 82%
    08:00 +14°C° 0 mm 3 m/S 728 mmHg 77%
    09:00 +16°C° 1 mm 2 m/S 728 mmHg 71%
    10:00 +17°C° 1 mm 2 m/S 728 mmHg 65%
    11:00 +18°C° 1 mm 2 m/S 728 mmHg 59%
    12:00 +19°C° 0.9 mm 2 m/S 728 mmHg 58%
    13:00 +19°C° 0.9 mm 2 m/S 728 mmHg 56%
    14:00 +20°C° 0.9 mm 2 m/S 727 mmHg 55%
    15:00 +18°C° 1.5 mm 3 m/S 727 mmHg 62%
    16:00 +17°C° 1.5 mm 3 m/S 727 mmHg 70%
    17:00 +15°C° 1.5 mm 4 m/S 727 mmHg 78%
    18:00 +14°C° 0.4 mm 5 m/S 727 mmHg 82%
    19:00 +13°C° 0.4 mm 5 m/S 727 mmHg 86%
    20:00 +11°C° 0.4 mm 6 m/S 728 mmHg 90%
    21:00 +10°C° 0.5 mm 6 m/S 728 mmHg 90%
    22:00 +10°C° 0.5 mm 6 m/S 728 mmHg 91%
    23:00 +9°C° 0.5 mm 6 m/S 728 mmHg 91%

    1 Mai, Mittwoch

    Zeit Temperatur Niederschläge Wind Luftdruck Luftfeuchtigkeit
    00:00 +9°C° 0 mm 5 m/S 728 mmHg 90%
    01:00 +8°C° 0 mm 5 m/S 728 mmHg 90%
    02:00 +8°C° 0 mm 5 m/S 728 mmHg 90%
    03:00 +8°C° 0 mm 5 m/S 728 mmHg 90%
    04:00 +8°C° 0 mm 5 m/S 728 mmHg 90%
    05:00 +7°C° 0 mm 5 m/S 728 mmHg 89%
    06:00 +7°C° 0 mm 5 m/S 728 mmHg 87%
    07:00 +8°C° 0 mm 5 m/S 728 mmHg 85%
    08:00 +8°C° 0 mm 6 m/S 728 mmHg 83%
    09:00 +8°C° 0 mm 6 m/S 729 mmHg 80%
    10:00 +8°C° 0 mm 6 m/S 729 mmHg 77%
    11:00 +9°C° 0 mm 5 m/S 729 mmHg 74%
    12:00 +10°C° 0 mm 5 m/S 729 mmHg 70%
    13:00 +12°C° 0 mm 5 m/S 729 mmHg 66%
    14:00 +12°C° 0 mm 5 m/S 729 mmHg 61%
    15:00 +12°C° 0.1 mm 5 m/S 729 mmHg 61%
    16:00 +12°C° 0.1 mm 5 m/S 729 mmHg 60%
    17:00 +13°C° 0.1 mm 5 m/S 729 mmHg 59%
    18:00 +11°C° 0 mm 4 m/S 729 mmHg 64%
    19:00 +10°C° 0 mm 3 m/S 729 mmHg 68%
    20:00 +9°C° 0 mm 3 m/S 729 mmHg 73%
    21:00 +8°C° 0 mm 3 m/S 729 mmHg 75%
    22:00 +7°C° 0 mm 3 m/S 730 mmHg 77%
    23:00 +7°C° 0 mm 3 m/S 730 mmHg 78%
    Mehr zeigen